Regional Weather Roundup
Issued by NWS

Home | Current Version | Previous Version | Text Only | Print | Product List | Glossary On
Versions: 1 2 3 4 5 6 7 8 9 10 11 12 13 14 15 16 17 18 19 20 21 22 23 24 25 26 27 28 29 30 31 32 33 34 35 36 37 38 39 40 41 42 43 44 45 46 47 48 49 50
000
ASUS43 KBIS 221210
RWRND

NORTH DAKOTA REGIONAL WEATHER ROUNDUP
NATIONAL WEATHER SERVICE BISMARCK ND
700 AM CDT SAT APR 22 2017

NOTE: "FAIR" INDICATES FEW OR NO CLOUDS BELOW 12,000 FEET WITH NO
SIGNIFICANT WEATHER AND/OR OBSTRUCTIONS TO VISIBILITY.


NDZ001>003-009>011-017-221300-
NORTHWEST NORTH DAKOTA

CITY           SKY/WX    TMP DP  RH WIND       PRES   REMARKS
WILLISTON      CLOUDY    43  41  93 N8        30.18R FOG
6HR MIN TEMP:  36; 6HR MAX TEMP:  45;

MINOT          FAIR      46  37  71 SW12      30.14S
MINOT AFB      CLEAR     43  37  79 W9        30.13R
$$

NDZ018>021-031>035-040>046-221300-
SOUTHWEST NORTH DAKOTA

CITY           SKY/WX    TMP DP  RH WIND       PRES   REMARKS
BISMARCK       FAIR      33  32  96 CALM      30.23S
6HR MIN TEMP:  31; 6HR MAX TEMP:  45;

DICKINSON      FAIR      35  31  85 S6        30.18F
GARRISON         N/A     35  33  92 S5        30.18S
6HR MIN TEMP:  33; 6HR MAX TEMP:  41;

HETTINGER ARPT MOCLDY    39  32  76 CALM      30.22S
$$

NDZ004>008-012>016-024-026-027-054-221300-
NORTHEAST NORTH DAKOTA

CITY           SKY/WX    TMP DP  RH WIND       PRES   REMARKS
GRAND FORKS    MOCLDY    46  40  79 W9        30.18R
GRND FRKS AFB  CLEAR     42  38  87 SW7       30.17S
DEVILS LAKE    FAIR      44  37  76 SW8       30.16F
$$

NDZ022-023-025-028>030-036>039-047>053-221300-
SOUTHEAST NORTH DAKOTA

CITY           SKY/WX    TMP DP  RH WIND       PRES   REMARKS
FARGO          PTCLDY    39  36  89 SW7       30.22S
6HR MIN TEMP:  38; 6HR MAX TEMP:  45;

JAMESTOWN      FAIR      41  36  82 SW7       30.21F
$$





USA.gov is the U.S. government's official web portal to all federal, state and local government web resources and services.